Time,TemperatureF,DewpointF,PressureIn,WindDirection,WindDirectionDegrees,WindSpeedMPH,WindSpeedGustMPH,Humidity,HourlyPrecipIn,Conditions,Clouds,dailyrainin,SoftwareType,DateUTC
2013-02-10 00:00:00,16.5,3.0,29.93,NW,310,4.5,4.9,54,0.00,,,0.00,WXlink_for_OpenVMS,2013-02-10 05:00:00,
2013-02-10 00:05:00,16.3,3.0,29.93,NW,316,3.6,5.4,54,0.00,,,0.00,WXlink_for_OpenVMS,2013-02-10 05:05:00,
2013-02-10 00:10:00,16.3,3.0,29.93,NW,308,4.9,6.3,54,0.00,,,0.00,WXlink_for_OpenVMS,2013-02-10 05:10:00,
2013-02-10 00:15:00,16.5,3.0,29.93,NNW,332,4.9,4.9,54,0.00,,,0.00,WXlink_for_OpenVMS,2013-02-10 05:15:00,
2013-02-10 00:20:00,16.5,3.0,29.93,NNW,341,4.5,4.5,54,0.00,,,0.00,WXlink_for_OpenVMS,2013-02-10 05:20:00,
2013-02-10 00:25:00,16.5,3.0,29.93,West,271,4.0,4.0,54,0.00,,,0.00,WXlink_for_OpenVMS,2013-02-10 05:25:00,
2013-02-10 00:30:00,16.5,3.0,29.93,NW,320,4.5,4.5,54,0.00,,,0.00,WXlink_for_OpenVMS,2013-02-10 05:30:00,
2013-02-10 00:35:00,16.5,2.0,29.93,WNW,296,3.6,5.4,53,0.00,,,0.00,WXlink_for_OpenVMS,2013-02-10 05:35:00,
2013-02-10 00:40:00,16.5,2.0,29.93,NW,312,4.5,4.5,53,0.00,,,0.00,WXlink_for_OpenVMS,2013-02-10 05:40:00,
2013-02-10 00:45:00,16.7,3.0,29.93,NW,317,4.0,4.0,53,0.00,,,0.00,WXlink_for_OpenVMS,2013-02-10 05:45:00,
2013-02-10 00:50:00,16.7,3.0,29.93,NW,317,4.5,4.5,53,0.00,,,0.00,WXlink_for_OpenVMS,2013-02-10 05:50:00,
2013-02-10 00:55:00,16.5,2.0,29.93,NW,314,3.1,3.6,53,0.00,,,0.00,WXlink_for_OpenVMS,2013-02-10 05:55:00,
2013-02-10 01:00:00,16.7,3.0,29.93,NW,319,4.0,5.4,53,0.00,,,0.00,WXlink_for_OpenVMS,2013-02-10 06:00:00,
2013-02-10 01:05:00,16.5,2.0,29.93,North,353,4.5,4.5,53,0.00,,,0.00,WXlink_for_OpenVMS,2013-02-10 06:05:00,
2013-02-10 01:10:00,16.5,2.0,29.93,NNW,330,4.0,5.8,53,0.00,,,0.00,WXlink_for_OpenVMS,2013-02-10 06:10:00,
2013-02-10 01:20:00,16.5,2.0,29.93,WNW,302,3.6,3.6,53,0.00,,,0.00,WXlink_for_OpenVMS,2013-02-10 06:20:00,
2013-02-10 01:25:00,16.3,2.0,29.93,NNW,336,3.6,4.0,52,0.00,,,0.00,WXlink_for_OpenVMS,2013-02-10 06:25:00,
2013-02-10 01:30:00,16.3,2.0,29.93,NW,320,3.1,3.6,52,0.00,,,0.00,WXlink_for_OpenVMS,2013-02-10 06:30:00,
2013-02-10 01:35:00,16.3,2.0,29.93,NW,310,4.5,4.5,52,0.00,,,0.00,WXlink_for_OpenVMS,2013-02-10 06:35:00,
2013-02-10 01:40:00,16.5,2.0,29.93,NNW,328,3.6,3.6,52,0.00,,,0.00,WXlink_for_OpenVMS,2013-02-10 06:40:00,
2013-02-10 01:45:00,16.2,2.0,29.93,NW,320,4.0,4.0,52,0.00,,,0.00,WXlink_for_OpenVMS,2013-02-10 06:45:00,
2013-02-10 01:55:00,16.5,2.0,29.93,NW,312,4.9,4.9,52,0.00,,,0.00,WXlink_for_OpenVMS,2013-02-10 06:55:00,
2013-02-10 02:00:00,16.7,2.0,29.96,NW,311,4.5,5.8,52,0.00,,,0.00,WXlink_for_OpenVMS,2013-02-10 07:00:00,
2013-02-10 02:05:00,16.7,2.0,29.96,NW,313,4.0,4.0,52,0.00,,,0.00,WXlink_for_OpenVMS,2013-02-10 07:05:00,
2013-02-10 02:10:00,16.7,2.0,29.96,NW,310,3.6,3.6,52,0.00,,,0.00,WXlink_for_OpenVMS,2013-02-10 07:10:00,
2013-02-10 02:15:00,16.7,2.0,29.96,WNW,299,4.0,4.0,52,0.00,,,0.00,WXlink_for_OpenVMS,2013-02-10 07:15:00,
2013-02-10 02:20:00,16.7,2.0,29.96,NW,315,3.6,3.6,52,0.00,,,0.00,WXlink_for_OpenVMS,2013-02-10 07:20:00,
2013-02-10 02:25:00,16.7,2.0,29.96,WNW,298,4.5,5.4,52,0.00,,,0.00,WXlink_for_OpenVMS,2013-02-10 07:25:00,
2013-02-10 02:30:00,16.7,2.0,29.96,NW,305,3.1,3.1,51,0.00,,,0.00,WXlink_for_OpenVMS,2013-02-10 07:30:00,
2013-02-10 02:35:00,16.5,2.0,29.96,NW,308,0.0,0.0,52,0.00,,,0.00,WXlink_for_OpenVMS,2013-02-10 07:35:00,
2013-02-10 02:45:00,16.0,1.0,29.96,NW,308,0.0,0.0,52,0.00,,,0.00,WXlink_for_OpenVMS,2013-02-10 07:45:00,
2013-02-10 02:50:00,15.8,1.0,29.96,NW,308,0.0,0.0,52,0.00,,,0.00,WXlink_for_OpenVMS,2013-02-10 07:50:00,
2013-02-10 02:55:00,15.4,1.0,29.96,NW,308,0.0,0.0,52,0.00,,,0.00,WXlink_for_OpenVMS,2013-02-10 07:55:00,
2013-02-10 03:00:00,15.4,1.0,29.96,NW,308,0.0,0.0,52,0.00,,,0.00,WXlink_for_OpenVMS,2013-02-10 08:00:00,
2013-02-10 03:05:00,15.3,1.0,29.96,NW,308,0.0,0.0,52,0.00,,,0.00,WXlink_for_OpenVMS,2013-02-10 08:05:00,
2013-02-10 03:10:00,15.1,1.0,29.96,NW,308,0.0,0.0,52,0.00,,,0.00,WXlink_for_OpenVMS,2013-02-10 08:10:00,
2013-02-10 03:20:00,14.4,0.0,29.99,NW,308,0.0,0.0,52,0.00,,,0.00,WXlink_for_OpenVMS,2013-02-10 08:20:00,
2013-02-10 03:25:00,13.8,-1.0,29.99,NW,308,0.0,0.0,52,0.00,,,0.00,WXlink_for_OpenVMS,2013-02-10 08:25:00,
2013-02-10 03:30:00,13.1,-1.0,29.99,NW,308,0.0,0.0,52,0.00,,,0.00,WXlink_for_OpenVMS,2013-02-10 08:30:00,
2013-02-10 03:35:00,12.7,-2.0,29.99,NW,308,0.0,0.0,52,0.00,,,0.00,WXlink_for_OpenVMS,2013-02-10 08:35:00,
2013-02-10 03:40:00,12.7,-2.0,29.99,NW,308,0.0,0.0,52,0.00,,,0.00,WXlink_for_OpenVMS,2013-02-10 08:40:00,
2013-02-10 03:45:00,12.6,-2.0,29.99,NW,308,0.0,0.0,52,0.00,,,0.00,WXlink_for_OpenVMS,2013-02-10 08:45:00,
2013-02-10 03:55:00,12.7,-2.0,29.99,NW,308,0.0,0.0,52,0.00,,,0.00,WXlink_for_OpenVMS,2013-02-10 08:55:00,
2013-02-10 04:00:00,12.9,-1.0,29.99,NW,308,0.0,0.0,52,0.00,,,0.00,WXlink_for_OpenVMS,2013-02-10 09:00:00,
2013-02-10 04:05:00,12.7,-2.0,29.99,NW,308,0.0,0.0,52,0.00,,,0.00,WXlink_for_OpenVMS,2013-02-10 09:05:00,
2013-02-10 04:10:00,12.6,-2.0,29.99,NW,308,0.0,0.0,52,0.00,,,0.00,WXlink_for_OpenVMS,2013-02-10 09:10:00,
2013-02-10 04:15:00,12.2,-2.0,29.99,NW,308,0.0,0.0,52,0.00,,,0.00,WXlink_for_OpenVMS,2013-02-10 09:15:00,
2013-02-10 04:20:00,11.8,-2.0,29.99,NW,308,0.0,0.0,52,0.00,,,0.00,WXlink_for_OpenVMS,2013-02-10 09:20:00,
2013-02-10 04:25:00,11.7,-3.0,29.99,NW,308,0.0,0.0,52,0.00,,,0.00,WXlink_for_OpenVMS,2013-02-10 09:25:00,
2013-02-10 04:35:00,10.9,-3.0,29.99,NW,308,0.0,0.0,52,0.00,,,0.00,WXlink_for_OpenVMS,2013-02-10 09:35:00,
2013-02-10 04:40:00,10.8,-3.0,29.99,NW,308,0.0,0.0,52,0.00,,,0.00,WXlink_for_OpenVMS,2013-02-10 09:40:00,
2013-02-10 04:45:00,10.8,-3.0,29.99,NW,308,0.0,0.0,52,0.00,,,0.00,WXlink_for_OpenVMS,2013-02-10 09:45:00,
2013-02-10 04:50:00,10.4,-4.0,29.99,NW,308,0.0,0.0,52,0.00,,,0.00,WXlink_for_OpenVMS,2013-02-10 09:50:00,
2013-02-10 04:55:00,9.9,-4.0,29.99,NW,308,0.0,0.0,52,0.00,,,0.00,WXlink_for_OpenVMS,2013-02-10 09:55:00,
2013-02-10 05:00:00,9.3,-5.0,29.99,NW,308,0.0,0.0,52,0.00,,,0.00,WXlink_for_OpenVMS,2013-02-10 10:00:00,
2013-02-10 05:05:00,9.0,-5.0,29.99,NW,308,0.0,0.0,52,0.00,,,0.00,WXlink_for_OpenVMS,2013-02-10 10:05:00,
2013-02-10 05:15:00,8.8,-5.0,30.02,NW,308,0.0,0.0,52,0.00,,,0.00,WXlink_for_OpenVMS,2013-02-10 10:15:00,
2013-02-10 05:20:00,8.8,-5.0,30.02,NW,308,0.0,0.0,52,0.00,,,0.00,WXlink_for_OpenVMS,2013-02-10 10:20:00,
2013-02-10 05:25:00,8.8,-5.0,30.02,NW,308,0.0,0.0,52,0.00,,,0.00,WXlink_for_OpenVMS,2013-02-10 10:25:00,
2013-02-10 05:30:00,8.1,-6.0,30.02,NW,308,0.0,0.0,52,0.00,,,0.00,WXlink_for_OpenVMS,2013-02-10 10:30:00,
2013-02-10 05:35:00,8.4,-6.0,30.02,NW,308,0.0,0.0,52,0.00,,,0.00,WXlink_for_OpenVMS,2013-02-10 10:35:00,
2013-02-10 05:40:00,8.6,-5.0,30.02,NW,308,0.0,0.0,52,0.00,,,0.00,WXlink_for_OpenVMS,2013-02-10 10:40:00,
2013-02-10 05:45:00,8.6,-5.0,30.02,NW,308,0.0,0.0,52,0.00,,,0.00,WXlink_for_OpenVMS,2013-02-10 10:45:00,
2013-02-10 05:55:00,8.2,-6.0,30.02,NW,308,0.0,0.0,52,0.00,,,0.00,WXlink_for_OpenVMS,2013-02-10 10:55:00,
2013-02-10 06:00:00,7.5,-6.0,30.02,NW,308,0.0,0.0,52,0.00,,,0.00,WXlink_for_OpenVMS,2013-02-10 11:00:00,
2013-02-10 06:05:00,7.0,-7.0,30.02,NW,308,0.0,0.0,52,0.00,,,0.00,WXlink_for_OpenVMS,2013-02-10 11:05:00,
2013-02-10 06:10:00,7.0,-7.0,30.02,NW,308,0.0,0.0,52,0.00,,,0.00,WXlink_for_OpenVMS,2013-02-10 11:10:00,
2013-02-10 06:15:00,6.4,-7.0,30.02,NW,308,0.0,0.0,52,0.00,,,0.00,WXlink_for_OpenVMS,2013-02-10 11:15:00,
2013-02-10 06:20:00,6.3,-8.0,30.02,NW,308,0.0,0.0,52,0.00,,,0.00,WXlink_for_OpenVMS,2013-02-10 11:20:00,
2013-02-10 06:30:00,5.7,-8.0,30.05,NW,308,0.0,0.0,52,0.00,,,0.00,WXlink_for_OpenVMS,2013-02-10 11:30:00,
2013-02-10 06:35:00,5.5,-8.0,30.05,NW,308,0.0,0.0,52,0.00,,,0.00,WXlink_for_OpenVMS,2013-02-10 11:35:00,
2013-02-10 06:40:00,5.5,-8.0,30.05,NW,308,0.0,0.0,52,0.00,,,0.00,WXlink_for_OpenVMS,2013-02-10 11:40:00,
2013-02-10 06:45:00,5.9,-8.0,30.05,NW,308,0.0,0.0,52,0.00,,,0.00,WXlink_for_OpenVMS,2013-02-10 11:45:00,
2013-02-10 06:50:00,5.9,-8.0,30.05,NW,308,0.0,0.0,52,0.00,,,0.00,WXlink_for_OpenVMS,2013-02-10 11:50:00,
2013-02-10 06:55:00,5.5,-8.0,30.05,NW,308,0.0,0.0,52,0.00,,,0.00,WXlink_for_OpenVMS,2013-02-10 11:55:00,
2013-02-10 07:05:00,5.2,-9.0,30.05,NW,308,0.0,0.0,52,0.00,,,0.00,WXlink_for_OpenVMS,2013-02-10 12:05:00,
2013-02-10 07:10:00,5.0,-9.0,30.05,NW,308,0.0,0.0,52,0.00,,,0.00,WXlink_for_OpenVMS,2013-02-10 12:10:00,
2013-02-10 07:15:00,4.8,-9.0,30.08,NW,308,0.0,0.0,52,0.00,,,0.00,WXlink_for_OpenVMS,2013-02-10 12:15:00,
2013-02-10 07:20:00,4.5,-9.0,30.08,NW,308,0.0,0.0,52,0.00,,,0.00,WXlink_for_OpenVMS,2013-02-10 12:20:00,
2013-02-10 07:25:00,4.1,-10.0,30.08,NW,308,0.0,0.0,52,0.00,,,0.00,WXlink_for_OpenVMS,2013-02-10 12:25:00,
2013-02-10 07:30:00,4.1,-10.0,30.08,NW,308,0.0,0.0,52,0.00,,,0.00,WXlink_for_OpenVMS,2013-02-10 12:30:00,
2013-02-10 07:35:00,4.1,-10.0,30.08,NW,308,0.0,0.0,52,0.00,,,0.00,WXlink_for_OpenVMS,2013-02-10 12:35:00,
2013-02-10 07:40:00,4.3,-9.0,30.08,NW,308,0.0,0.0,52,0.00,,,0.00,WXlink_for_OpenVMS,2013-02-10 12:40:00,
2013-02-10 07:50:00,5.2,-9.0,30.08,NW,308,0.0,0.0,52,0.00,,,0.00,WXlink_for_OpenVMS,2013-02-10 12:50:00,
2013-02-10 07:55:00,5.2,-9.0,30.08,NW,308,0.0,0.0,52,0.00,,,0.00,WXlink_for_OpenVMS,2013-02-10 12:55:00,
2013-02-10 08:00:00,5.7,-8.0,30.08,NW,308,0.0,0.0,52,0.00,,,0.00,WXlink_for_OpenVMS,2013-02-10 13:00:00,
2013-02-10 08:05:00,6.3,-8.0,30.08,NW,308,0.0,0.0,52,0.00,,,0.00,WXlink_for_OpenVMS,2013-02-10 13:05:00,
2013-02-10 08:10:00,7.0,-7.0,30.08,NW,308,0.0,0.0,52,0.00,,,0.00,WXlink_for_OpenVMS,2013-02-10 13:10:00,
2013-02-10 08:15:00,7.3,-7.0,30.08,NW,308,0.0,0.0,52,0.00,,,0.00,WXlink_for_OpenVMS,2013-02-10 13:15:00,
2013-02-10 08:20:00,7.9,-6.0,30.08,NW,308,0.0,0.0,52,0.00,,,0.00,WXlink_for_OpenVMS,2013-02-10 13:20:00,
2013-02-10 08:25:00,8.2,-6.0,30.08,NW,308,0.0,0.0,52,0.00,,,0.00,WXlink_for_OpenVMS,2013-02-10 13:25:00,
2013-02-10 08:30:00,8.8,-5.0,30.11,NW,308,0.0,0.0,52,0.00,,,0.00,WXlink_for_OpenVMS,2013-02-10 13:30:00,
2013-02-10 08:35:00,9.7,-4.0,30.11,NW,308,0.0,0.0,52,0.00,,,0.00,WXlink_for_OpenVMS,2013-02-10 13:35:00,
2013-02-10 08:40:00,10.9,-3.0,30.11,NW,308,0.0,0.0,52,0.00,,,0.00,WXlink_for_OpenVMS,2013-02-10 13:40:00,
2013-02-10 08:45:00,12.0,-2.0,30.11,NW,308,0.0,0.0,52,0.00,,,0.00,WXlink_for_OpenVMS,2013-02-10 13:45:00,
2013-02-10 08:50:00,13.5,-1.0,30.11,NW,308,0.0,0.0,52,0.00,,,0.00,WXlink_for_OpenVMS,2013-02-10 13:50:00,
2013-02-10 09:00:00,16.0,1.0,30.11,NW,308,0.0,0.0,52,0.00,,,0.00,WXlink_for_OpenVMS,2013-02-10 14:00:00,
2013-02-10 09:05:00,16.9,2.0,30.11,NW,308,0.0,0.0,52,0.00,,,0.00,WXlink_for_OpenVMS,2013-02-10 14:05:00,
2013-02-10 09:10:00,17.6,3.0,30.11,NW,308,0.0,0.0,52,0.00,,,0.00,WXlink_for_OpenVMS,2013-02-10 14:10:00,
2013-02-10 09:15:00,18.1,3.0,30.11,NW,308,0.0,0.0,52,0.00,,,0.00,WXlink_for_OpenVMS,2013-02-10 14:15:00,
2013-02-10 09:20:00,18.7,4.0,30.11,NW,308,0.0,0.0,52,0.00,,,0.00,WXlink_for_OpenVMS,2013-02-10 14:20:00,
2013-02-10 09:25:00,19.2,6.0,30.11,NW,308,0.0,0.0,57,0.00,,,0.00,WXlink_for_OpenVMS,2013-02-10 14:25:00,
2013-02-10 09:30:00,19.8,7.0,30.11,NW,308,0.0,0.0,56,0.00,,,0.00,WXlink_for_OpenVMS,2013-02-10 14:30:00,
2013-02-10 09:35:00,20.3,7.0,30.11,NW,308,0.0,0.0,55,0.00,,,0.00,WXlink_for_OpenVMS,2013-02-10 14:35:00,
2013-02-10 09:46:00,21.7,8.0,30.11,NW,324,0.0,0.0,54,0.00,,,0.00,WXlink_for_OpenVMS,2013-02-10 14:46:00,
2013-02-10 09:55:00,23.0,8.0,30.11,NW,324,0.0,0.0,52,0.00,,,0.00,WXlink_for_OpenVMS,2013-02-10 14:55:00,
2013-02-10 10:00:00,23.5,8.0,30.11,NW,324,0.0,0.0,51,0.00,,,0.00,WXlink_for_OpenVMS,2013-02-10 15:00:00,
2013-02-10 10:05:00,23.9,8.0,30.11,NW,324,0.0,0.0,49,0.00,,,0.00,WXlink_for_OpenVMS,2013-02-10 15:05:00,
2013-02-10 10:10:00,24.3,8.0,30.11,NW,324,0.0,0.0,49,0.00,,,0.00,WXlink_for_OpenVMS,2013-02-10 15:10:00,
2013-02-10 10:15:00,24.8,7.0,30.11,NW,324,0.0,0.0,47,0.00,,,0.00,WXlink_for_OpenVMS,2013-02-10 15:15:00,
2013-02-10 10:25:00,25.9,7.0,30.11,NW,324,0.0,0.0,45,0.00,,,0.00,WXlink_for_OpenVMS,2013-02-10 15:25:00,
2013-02-10 10:31:00,26.2,7.0,30.11,WNW,285,2.7,0.0,44,0.00,,,0.00,WXlink_for_OpenVMS,2013-02-10 15:31:00,
2013-02-10 10:40:00,27.0,7.0,30.11,WNW,292,2.2,3.1,43,0.00,,,0.00,WXlink_for_OpenVMS,2013-02-10 15:40:00,
2013-02-10 10:45:00,27.3,8.0,30.11,NW,309,0.0,0.0,43,0.00,,,0.00,WXlink_for_OpenVMS,2013-02-10 15:45:00,
2013-02-10 10:50:00,27.9,8.0,30.11,NNW,331,0.0,0.0,43,0.00,,,0.00,WXlink_for_OpenVMS,2013-02-10 15:50:00,
2013-02-10 10:55:00,28.4,8.0,30.11,NW,310,0.0,0.0,42,0.00,,,0.00,WXlink_for_OpenVMS,2013-02-10 15:55:00,
2013-02-10 11:00:00,28.8,9.0,30.11,NW,326,0.0,0.0,42,0.00,,,0.00,WXlink_for_OpenVMS,2013-02-10 16:00:00,
2013-02-10 11:10:00,29.7,8.0,30.11,NNW,331,0.0,0.0,40,0.00,,,0.00,WXlink_for_OpenVMS,2013-02-10 16:10:00,
2013-02-10 11:15:00,30.2,9.0,30.11,NNW,331,0.0,0.0,40,0.00,,,0.00,WXlink_for_OpenVMS,2013-02-10 16:15:00,
2013-02-10 11:21:00,30.7,9.0,30.11,NW,308,0.0,0.0,40,0.00,,,0.00,WXlink_for_OpenVMS,2013-02-10 16:21:00,
2013-02-10 11:30:00,31.6,10.0,30.11,NW,321,3.6,3.6,39,0.00,,,0.00,WXlink_for_OpenVMS,2013-02-10 16:30:00,
2013-02-10 11:35:00,32.2,8.0,30.11,NW,326,3.6,3.6,36,0.00,,,0.00,WXlink_for_OpenVMS,2013-02-10 16:35:00,
2013-02-10 11:40:00,32.5,9.0,30.11,NW,316,0.0,2.7,36,0.00,,,0.00,WXlink_for_OpenVMS,2013-02-10 16:40:00,
2013-02-10 11:45:00,32.7,9.0,30.11,NW,324,0.0,0.0,37,0.00,,,0.00,WXlink_for_OpenVMS,2013-02-10 16:45:00,
2013-02-10 11:51:00,33.3,9.0,30.11,WNW,296,0.0,0.0,35,0.00,,,0.00,WXlink_for_OpenVMS,2013-02-10 16:51:00,
2013-02-10 12:01:00,33.8,9.0,30.11,WNW,283,0.0,0.0,35,0.00,,,0.00,WXlink_for_OpenVMS,2013-02-10 17:01:00,
2013-02-10 12:10:00,34.5,9.0,30.11,WSW,247,2.2,0.0,34,0.00,,,0.00,WXlink_for_OpenVMS,2013-02-10 17:10:00,
2013-02-10 12:15:00,34.9,9.0,30.11,WSW,247,0.0,0.0,34,0.00,,,0.00,WXlink_for_OpenVMS,2013-02-10 17:15:00,
2013-02-10 12:20:00,35.2,8.0,30.11,WNW,297,0.0,3.1,32,0.00,,,0.00,WXlink_for_OpenVMS,2013-02-10 17:20:00,
2013-02-10 12:26:00,35.6,9.0,30.11,WSW,256,2.7,0.0,32,0.00,,,0.00,WXlink_for_OpenVMS,2013-02-10 17:26:00,
2013-02-10 12:35:00,36.1,9.0,30.08,WNW,293,0.0,0.0,32,0.00,,,0.00,WXlink_for_OpenVMS,2013-02-10 17:35:00,
2013-02-10 12:40:00,36.3,9.0,30.08,WNW,300,0.0,0.0,31,0.00,,,0.00,WXlink_for_OpenVMS,2013-02-10 17:40:00,
2013-02-10 12:45:00,36.7,9.0,30.08,NW,304,0.0,0.0,31,0.00,,,0.00,WXlink_for_OpenVMS,2013-02-10 17:45:00,
2013-02-10 12:55:00,37.2,9.0,30.08,North,350,0.0,0.0,31,0.00,,,0.00,WXlink_for_OpenVMS,2013-02-10 17:55:00,
2013-02-10 13:00:00,37.6,9.0,30.08,North,350,0.0,0.0,30,0.00,,,0.00,WXlink_for_OpenVMS,2013-02-10 18:00:00,
2013-02-10 13:05:00,37.8,9.0,30.08,North,350,0.0,0.0,30,0.00,,,0.00,WXlink_for_OpenVMS,2013-02-10 18:05:00,
2013-02-10 13:11:00,37.8,9.0,30.08,North,2,2.2,2.2,30,0.00,,,0.00,WXlink_for_OpenVMS,2013-02-10 18:11:00,
2013-02-10 13:20:00,37.6,9.0,30.08,North,3,0.0,0.0,30,0.00,,,0.00,WXlink_for_OpenVMS,2013-02-10 18:20:00,
2013-02-10 13:25:00,37.9,11.0,30.08,NW,320,0.0,0.0,32,0.00,,,0.00,WXlink_for_OpenVMS,2013-02-10 18:25:00,
2013-02-10 13:35:00,38.7,11.0,30.05,SSW,211,0.0,0.0,31,0.00,,,0.00,WXlink_for_OpenVMS,2013-02-10 18:35:00,
2013-02-10 13:40:00,38.8,10.0,30.05,SSW,211,0.0,0.0,30,0.00,,,0.00,WXlink_for_OpenVMS,2013-02-10 18:40:00,
2013-02-10 13:45:00,39.2,10.0,30.05,NNW,337,0.0,0.0,30,0.00,,,0.00,WXlink_for_OpenVMS,2013-02-10 18:45:00,
2013-02-10 13:50:00,39.2,12.0,30.05,NNW,335,0.0,0.0,32,0.00,,,0.00,WXlink_for_OpenVMS,2013-02-10 18:50:00,
2013-02-10 13:55:00,39.2,10.0,30.05,NNW,335,0.0,0.0,30,0.00,,,0.00,WXlink_for_OpenVMS,2013-02-10 18:55:00,
2013-02-10 14:05:00,39.6,11.0,30.02,NNW,335,0.0,0.0,30,0.00,,,0.04,WXlink_for_OpenVMS,2013-02-10 19:05:00,
2013-02-10 14:10:00,39.9,12.0,30.02,NNW,335,0.0,0.0,31,0.00,,,0.04,WXlink_for_OpenVMS,2013-02-10 19:10:00,
2013-02-10 14:15:00,39.6,13.0,30.05,NNW,335,0.0,0.0,33,0.00,,,0.04,WXlink_for_OpenVMS,2013-02-10 19:15:00,
2013-02-10 14:20:00,39.4,13.0,30.05,NNW,335,0.0,0.0,33,0.00,,,0.04,WXlink_for_OpenVMS,2013-02-10 19:20:00,
2013-02-10 14:25:00,39.7,12.0,30.05,NNW,335,0.0,0.0,31,0.00,,,0.04,WXlink_for_OpenVMS,2013-02-10 19:25:00,
2013-02-10 14:30:00,39.9,12.0,30.05,SW,214,0.0,0.0,31,0.00,,,0.04,WXlink_for_OpenVMS,2013-02-10 19:30:00,
2013-02-10 14:35:00,40.1,14.0,30.05,SW,214,0.0,0.0,34,0.00,,,0.04,WXlink_for_OpenVMS,2013-02-10 19:35:00,
2013-02-10 14:40:00,40.1,13.0,30.05,SW,214,0.0,0.0,33,0.00,,,0.04,WXlink_for_OpenVMS,2013-02-10 19:40:00,
2013-02-10 14:45:00,40.1,13.0,30.05,SW,215,0.0,0.0,32,0.00,,,0.04,WXlink_for_OpenVMS,2013-02-10 19:45:00,
2013-02-10 14:50:00,40.1,14.0,30.05,SW,215,0.0,0.0,34,0.00,,,0.04,WXlink_for_OpenVMS,2013-02-10 19:50:00,
2013-02-10 15:00:00,39.9,13.0,30.05,SW,214,0.0,0.0,33,0.00,,,0.04,WXlink_for_OpenVMS,2013-02-10 20:00:00,
2013-02-10 15:05:00,39.9,12.0,30.05,SW,214,0.0,0.0,32,0.00,,,0.04,WXlink_for_OpenVMS,2013-02-10 20:05:00,
2013-02-10 15:10:00,39.7,12.0,30.05,SW,215,0.0,0.0,31,0.00,,,0.04,WXlink_for_OpenVMS,2013-02-10 20:10:00,
2013-02-10 15:15:00,39.6,11.0,30.05,SW,215,0.0,0.0,30,0.00,,,0.04,WXlink_for_OpenVMS,2013-02-10 20:15:00,
2013-02-10 15:21:00,39.2,10.0,30.05,SW,215,0.0,0.0,30,0.00,,,0.04,WXlink_for_OpenVMS,2013-02-10 20:21:00,
2013-02-10 15:30:00,38.8,11.0,30.05,SW,215,0.0,0.0,32,0.00,,,0.04,WXlink_for_OpenVMS,2013-02-10 20:30:00,
2013-02-10 15:35:00,38.7,11.0,30.05,SW,215,0.0,0.0,32,0.00,,,0.04,WXlink_for_OpenVMS,2013-02-10 20:35:00,
2013-02-10 15:45:00,38.5,13.0,30.08,SW,215,0.0,0.0,34,0.00,,,0.04,WXlink_for_OpenVMS,2013-02-10 20:45:00,
2013-02-10 15:51:00,38.5,12.0,30.08,SW,214,0.0,0.0,33,0.00,,,0.04,WXlink_for_OpenVMS,2013-02-10 20:51:00,
2013-02-10 16:00:00,38.5,12.0,30.08,WSW,249,2.7,2.7,33,0.00,,,0.04,WXlink_for_OpenVMS,2013-02-10 21:00:00,
2013-02-10 16:10:00,37.8,13.0,30.08,WSW,249,0.0,0.0,36,0.00,,,0.04,WXlink_for_OpenVMS,2013-02-10 21:10:00,
2013-02-10 16:15:00,37.8,13.0,30.08,WSW,249,0.0,0.0,36,0.00,,,0.04,WXlink_for_OpenVMS,2013-02-10 21:15:00,
2013-02-10 16:20:00,37.8,13.0,30.08,WSW,249,0.0,0.0,36,0.00,,,0.04,WXlink_for_OpenVMS,2013-02-10 21:20:00,
2013-02-10 16:25:00,37.4,15.0,30.08,WSW,249,0.0,0.0,39,0.00,,,0.04,WXlink_for_OpenVMS,2013-02-10 21:25:00,
2013-02-10 16:30:00,37.2,15.0,30.08,WSW,249,0.0,0.0,39,0.00,,,0.04,WXlink_for_OpenVMS,2013-02-10 21:30:00,
2013-02-10 16:35:00,36.7,15.0,30.08,WSW,249,0.0,0.0,40,0.00,,,0.04,WXlink_for_OpenVMS,2013-02-10 21:35:00,
2013-02-10 16:40:00,36.1,15.0,30.08,WSW,249,0.0,0.0,41,0.00,,,0.04,WXlink_for_OpenVMS,2013-02-10 21:40:00,
2013-02-10 16:50:00,35.4,13.0,30.05,WSW,249,0.0,0.0,40,0.00,,,0.04,WXlink_for_OpenVMS,2013-02-10 21:50:00,
2013-02-10 16:55:00,34.9,13.0,30.05,WSW,249,0.0,0.0,40,0.00,,,0.04,WXlink_for_OpenVMS,2013-02-10 21:55:00,
2013-02-10 17:00:00,34.7,13.0,30.05,WSW,249,0.0,0.0,41,0.00,,,0.04,WXlink_for_OpenVMS,2013-02-10 22:00:00,
2013-02-10 17:05:00,34.3,13.0,30.05,WSW,249,0.0,0.0,41,0.00,,,0.04,WXlink_for_OpenVMS,2013-02-10 22:05:00,
2013-02-10 17:10:00,34.2,13.0,30.05,WSW,249,0.0,0.0,42,0.00,,,0.04,WXlink_for_OpenVMS,2013-02-10 22:10:00,
2013-02-10 17:20:00,34.0,13.0,30.08,WSW,249,0.0,0.0,41,0.00,,,0.04,WXlink_for_OpenVMS,2013-02-10 22:20:00,
2013-02-10 17:25:00,33.6,12.0,30.08,WSW,249,0.0,0.0,41,0.00,,,0.04,WXlink_for_OpenVMS,2013-02-10 22:25:00,
2013-02-10 17:30:00,33.3,12.0,30.08,WSW,249,0.0,0.0,40,0.00,,,0.04,WXlink_for_OpenVMS,2013-02-10 22:30:00,
2013-02-10 17:35:00,32.9,11.0,30.08,WSW,249,0.0,0.0,40,0.00,,,0.04,WXlink_for_OpenVMS,2013-02-10 22:35:00,
2013-02-10 17:40:00,32.5,11.0,30.08,WSW,249,0.0,0.0,41,0.00,,,0.04,WXlink_for_OpenVMS,2013-02-10 22:40:00,
2013-02-10 17:45:00,32.2,11.0,30.08,WSW,249,0.0,0.0,41,0.00,,,0.04,WXlink_for_OpenVMS,2013-02-10 22:45:00,
2013-02-10 17:50:00,32.0,11.0,30.08,WSW,249,0.0,0.0,42,0.00,,,0.04,WXlink_for_OpenVMS,2013-02-10 22:50:00,
2013-02-10 18:00:00,30.9,11.0,30.08,WSW,249,0.0,0.0,42,0.00,,,0.04,WXlink_for_OpenVMS,2013-02-10 23:00:00,
2013-02-10 18:05:00,30.6,10.0,30.08,WSW,249,0.0,0.0,42,0.00,,,0.04,WXlink_for_OpenVMS,2013-02-10 23:05:00,
2013-02-10 18:10:00,30.2,10.0,30.08,WSW,249,0.0,0.0,43,0.00,,,0.04,WXlink_for_OpenVMS,2013-02-10 23:10:00,
2013-02-10 18:15:00,29.8,10.0,30.08,WSW,249,0.0,0.0,43,0.00,,,0.04,WXlink_for_OpenVMS,2013-02-10 23:15:00,
2013-02-10 18:20:00,29.5,10.0,30.08,WSW,249,0.0,0.0,43,0.00,,,0.04,WXlink_for_OpenVMS,2013-02-10 23:20:00,
2013-02-10 18:25:00,29.7,10.0,30.08,WSW,249,0.0,0.0,43,0.00,,,0.04,WXlink_for_OpenVMS,2013-02-10 23:25:00,
2013-02-10 18:30:00,29.7,9.0,30.08,WSW,249,0.0,0.0,42,0.00,,,0.04,WXlink_for_OpenVMS,2013-02-10 23:30:00,
2013-02-10 18:35:00,29.8,10.0,30.08,WSW,249,0.0,0.0,43,0.00,,,0.04,WXlink_for_OpenVMS,2013-02-10 23:35:00,
2013-02-10 18:45:00,28.8,10.0,30.08,WSW,249,0.0,0.0,44,0.00,,,0.04,WXlink_for_OpenVMS,2013-02-10 23:45:00,
2013-02-10 18:50:00,28.6,10.0,30.08,WSW,249,0.0,0.0,45,0.00,,,0.04,WXlink_for_OpenVMS,2013-02-10 23:50:00,
2013-02-10 18:55:00,28.2,10.0,30.08,WSW,249,0.0,0.0,45,0.00,,,0.04,WXlink_for_OpenVMS,2013-02-10 23:55:00,
2013-02-10 19:00:00,27.9,10.0,30.08,WSW,249,0.0,0.0,46,0.00,,,0.04,WXlink_for_OpenVMS,2013-02-11 00:00:00,
2013-02-10 19:05:00,27.7,10.0,30.08,WSW,249,0.0,0.0,46,0.00,,,0.04,WXlink_for_OpenVMS,2013-02-11 00:05:00,
2013-02-10 19:10:00,27.5,9.0,30.08,WSW,249,0.0,0.0,46,0.00,,,0.04,WXlink_for_OpenVMS,2013-02-11 00:10:00,
2013-02-10 19:15:00,27.3,10.0,30.08,WSW,249,0.0,0.0,47,0.00,,,0.04,WXlink_for_OpenVMS,2013-02-11 00:15:00,
2013-02-10 19:25:00,26.4,9.0,30.08,WSW,249,0.0,0.0,48,0.00,,,0.04,WXlink_for_OpenVMS,2013-02-11 00:25:00,
2013-02-10 19:30:00,26.4,9.0,30.08,WSW,249,0.0,0.0,48,0.00,,,0.04,WXlink_for_OpenVMS,2013-02-11 00:30:00,
2013-02-10 19:35:00,26.4,10.0,30.08,WSW,249,0.0,0.0,50,0.00,,,0.04,WXlink_for_OpenVMS,2013-02-11 00:35:00,
2013-02-10 19:40:00,26.2,10.0,30.08,WSW,249,0.0,0.0,50,0.00,,,0.04,WXlink_for_OpenVMS,2013-02-11 00:40:00,
2013-02-10 19:45:00,25.9,10.0,30.08,WSW,249,0.0,0.0,51,0.00,,,0.04,WXlink_for_OpenVMS,2013-02-11 00:45:00,
2013-02-10 19:50:00,25.7,10.0,30.08,WSW,249,0.0,0.0,52,0.00,,,0.04,WXlink_for_OpenVMS,2013-02-11 00:50:00,
2013-02-10 19:55:00,25.7,10.0,30.08,WSW,249,0.0,0.0,52,0.00,,,0.04,WXlink_for_OpenVMS,2013-02-11 00:55:00,
2013-02-10 20:05:00,25.5,10.0,30.08,WSW,249,0.0,0.0,52,0.00,,,0.04,WXlink_for_OpenVMS,2013-02-11 01:05:00,
2013-02-10 20:15:00,25.3,11.0,30.08,WSW,249,0.0,0.0,53,0.00,,,0.04,WXlink_for_OpenVMS,2013-02-11 01:15:00,
2013-02-10 20:20:00,25.3,11.0,30.08,WSW,249,0.0,0.0,54,0.00,,,0.04,WXlink_for_OpenVMS,2013-02-11 01:20:00,
2013-02-10 20:25:00,25.2,11.0,30.08,WSW,249,0.0,0.0,54,0.00,,,0.04,WXlink_for_OpenVMS,2013-02-11 01:25:00,
2013-02-10 20:30:00,25.0,11.0,30.08,WSW,249,0.0,0.0,55,0.00,,,0.04,WXlink_for_OpenVMS,2013-02-11 01:30:00,
2013-02-10 20:35:00,24.4,11.0,30.08,WSW,249,0.0,0.0,55,0.00,,,0.04,WXlink_for_OpenVMS,2013-02-11 01:35:00,
2013-02-10 20:40:00,24.3,10.0,30.08,WSW,249,0.0,0.0,55,0.00,,,0.04,WXlink_for_OpenVMS,2013-02-11 01:40:00,
2013-02-10 20:45:00,24.3,10.0,30.08,WSW,249,0.0,0.0,55,0.00,,,0.04,WXlink_for_OpenVMS,2013-02-11 01:45:00,
2013-02-10 20:55:00,23.7,10.0,30.08,WSW,249,0.0,0.0,55,0.00,,,0.04,WXlink_for_OpenVMS,2013-02-11 01:55:00,
2013-02-10 21:00:00,23.5,10.0,30.08,WSW,249,0.0,0.0,56,0.00,,,0.04,WXlink_for_OpenVMS,2013-02-11 02:00:00,
2013-02-10 21:05:00,23.5,10.0,30.08,WSW,249,0.0,0.0,56,0.00,,,0.04,WXlink_for_OpenVMS,2013-02-11 02:05:00,
2013-02-10 21:10:00,23.7,10.0,30.08,WSW,249,0.0,0.0,56,0.00,,,0.04,WXlink_for_OpenVMS,2013-02-11 02:10:00,
2013-02-10 21:20:00,23.9,10.0,30.08,WSW,249,0.0,0.0,56,0.00,,,0.04,WXlink_for_OpenVMS,2013-02-11 02:20:00,
2013-02-10 21:25:00,23.5,10.0,30.08,WSW,249,0.0,0.0,56,0.00,,,0.04,WXlink_for_OpenVMS,2013-02-11 02:25:00,
2013-02-10 21:35:00,22.8,9.0,30.08,WSW,249,0.0,0.0,56,0.00,,,0.04,WXlink_for_OpenVMS,2013-02-11 02:35:00,
2013-02-10 21:40:00,22.5,9.0,30.08,WSW,249,0.0,0.0,56,0.00,,,0.04,WXlink_for_OpenVMS,2013-02-11 02:40:00,
2013-02-10 21:45:00,22.1,9.0,30.08,WSW,249,0.0,0.0,56,0.00,,,0.04,WXlink_for_OpenVMS,2013-02-11 02:45:00,
2013-02-10 21:50:00,21.9,9.0,30.08,WSW,249,0.0,0.0,56,0.00,,,0.04,WXlink_for_OpenVMS,2013-02-11 02:50:00,
2013-02-10 21:55:00,21.9,9.0,30.08,WSW,249,0.0,0.0,57,0.00,,,0.04,WXlink_for_OpenVMS,2013-02-11 02:55:00,
2013-02-10 22:00:00,21.6,9.0,30.08,WSW,249,0.0,0.0,57,0.00,,,0.04,WXlink_for_OpenVMS,2013-02-11 03:00:00,
2013-02-10 22:10:00,21.2,8.0,30.08,WSW,249,0.0,0.0,57,0.00,,,0.04,WXlink_for_OpenVMS,2013-02-11 03:10:00,
2013-02-10 22:15:00,21.2,8.0,30.08,WSW,249,0.0,0.0,57,0.00,,,0.04,WXlink_for_OpenVMS,2013-02-11 03:15:00,
2013-02-10 22:20:00,21.4,9.0,30.08,WSW,249,0.0,0.0,57,0.00,,,0.04,WXlink_for_OpenVMS,2013-02-11 03:20:00,
2013-02-10 22:25:00,21.2,8.0,30.08,WSW,248,0.0,0.0,57,0.00,,,0.04,WXlink_for_OpenVMS,2013-02-11 03:25:00,
2013-02-10 22:30:00,21.2,8.0,30.08,WSW,249,0.0,0.0,57,0.00,,,0.04,WXlink_for_OpenVMS,2013-02-11 03:30:00,
2013-02-10 22:35:00,21.2,9.0,30.08,WSW,249,0.0,0.0,58,0.00,,,0.04,WXlink_for_OpenVMS,2013-02-11 03:35:00,
2013-02-10 22:40:00,21.2,9.0,30.08,WSW,249,0.0,0.0,58,0.00,,,0.04,WXlink_for_OpenVMS,2013-02-11 03:40:00,
2013-02-10 22:45:00,20.8,9.0,30.08,WSW,249,0.0,0.0,59,0.00,,,0.04,WXlink_for_OpenVMS,2013-02-11 03:45:00,
2013-02-10 22:50:00,20.8,9.0,30.08,WSW,249,0.0,0.0,59,0.00,,,0.04,WXlink_for_OpenVMS,2013-02-11 03:50:00,
2013-02-10 22:55:00,20.5,8.0,30.08,WSW,249,0.0,0.0,59,0.00,,,0.04,WXlink_for_OpenVMS,2013-02-11 03:55:00,
2013-02-10 23:00:00,20.1,8.0,30.08,WSW,249,0.0,0.0,60,0.00,,,0.04,WXlink_for_OpenVMS,2013-02-11 04:00:00,
2013-02-10 23:10:00,19.8,8.0,30.08,WSW,249,0.0,0.0,60,0.00,,,0.04,WXlink_for_OpenVMS,2013-02-11 04:10:00,
2013-02-10 23:15:00,19.6,8.0,30.08,WSW,249,0.0,0.0,60,0.00,,,0.04,WXlink_for_OpenVMS,2013-02-11 04:15:00,
2013-02-10 23:21:00,19.8,8.0,30.08,WSW,249,0.0,0.0,60,0.00,,,0.04,WXlink_for_OpenVMS,2013-02-11 04:21:00,
2013-02-10 23:30:00,19.8,8.0,30.08,WSW,249,0.0,0.0,61,0.00,,,0.04,WXlink_for_OpenVMS,2013-02-11 04:30:00,
2013-02-10 23:35:00,19.8,8.0,30.08,WSW,249,0.0,0.0,61,0.00,,,0.04,WXlink_for_OpenVMS,2013-02-11 04:35:00,
2013-02-10 23:40:00,19.4,8.0,30.08,WSW,249,0.0,0.0,61,0.00,,,0.04,WXlink_for_OpenVMS,2013-02-11 04:40:00,
2013-02-10 23:45:00,18.9,8.0,30.08,WSW,248,0.0,0.0,61,0.00,,,0.04,WXlink_for_OpenVMS,2013-02-11 04:45:00,
2013-02-10 23:50:00,18.3,7.0,30.08,WSW,249,0.0,0.0,62,0.00,,,0.04,WXlink_for_OpenVMS,2013-02-11 04:50:00,